[[{"header":{"parameterUnit":"m.s-1","parameterCategory":1,"la1":30.2991,"la2":30.254,"lo1":-89.0895,"lo2":-89.0444,"dy":0.0017,"dx":0.0017,"nx":28,"ny":28,"refTime":"2023-08-26T09:00:00:Z","depth":0,"parameterNumber":2,"parameterNumberName":"U-component_of_WINDS"},"data":[0,0,0,0,0,0,0,0,0,0,0,0,0,0,0,0,0,0,0,0,0,0,0,0,0,0,0,0,0,0,0,0,0,0,0,0,0,0,0,0,0,0,0,0,0,0,0,0,0,0,0,0,0,0,0,0,0,0,1.3919,1.3918,0,1.3847,1.3846,1.3845,1.3689,1.3686,1.3683,1.368,1.3614,1.3616,1.3617,0,0,0,0,0,0,0,0,0,0,0,0,0,1.3927,1.3928,1.3919,1.3918,1.3917,1.3847,1.3846,1.3845,1.369,1.3686,1.3682,1.3679,1.3614,1.3615,1.3617,0,0,0,0,0,0,0,0,0,0,0,0,0,1.3897,1.3928,1.3919,1.3831,1.3822,1.3847,1.3846,1.3845,1.3691,1.3686,1.3681,1.3677,1.3613,1.3615,1.3617,1.3724,0,0,1.3623,1.3623,0,0,0,0,0,0,0,0,1.3899,1.3897,1.3845,1.3837,1.3827,1.3772,1.3825,1.3805,1.3692,1.3741,1.368,1.3674,1.3671,1.3668,1.3665,1.3721,1.3718,1.3623,1.3624,1.3625,1.3625,0,0,0,0,0,0,0,1.3901,1.3899,1.3891,1.3844,1.3834,1.3797,1.3787,1.382,1.3734,1.3736,1.3725,1.3718,1.3666,1.3664,1.3663,1.3717,1.3623,1.3624,1.3626,1.3626,1.3858,1.3863,0,0,0,0,0,0,1.3915,1.3902,1.3893,1.3888,1.3852,1.3801,1.379,1.3795,1.3733,1.3719,1.3722,1.3711,1.3663,1.3661,1.366,1.3782,1.3625,1.3626,1.3628,1.3853,1.3859,1.3865,0,0,0,0,0,0,1.3916,1.3915,1.3896,1.3892,1.3886,1.3806,1.3813,1.3796,1.3794,1.3722,1.3707,1.3736,1.3659,1.3657,1.3709,1.3778,1.3627,1.3629,1.3847,1.3855,1.3862,1.4028,0,0,0,0,0,0,1.3916,1.3917,1.3955,1.3894,1.3887,1.3945,1.3817,1.3798,1.3797,1.3781,1.3731,1.3719,1.3655,1.3707,1.3711,1.3778,1.363,1.3841,1.3851,1.386,1.4016,1.404,1.4061,0,0,0,0,0,1.3917,1.4006,1.3958,1.3958,1.3933,1.3949,1.3946,1.3869,1.3803,1.3842,1.3796,1.372,1.3769,1.3714,1.3717,1.3785,1.3836,1.3848,1.3859,1.4006,1.4035,1.406,0,0,0,0,0,0,1.4081,1.3997,1.3942,1.4014,1.3989,1.3923,1.397,1.3903,1.3899,1.3885,1.3792,1.3782,1.3847,1.382,1.3761,1.3886,1.379,1.3803,1.3901,1.3929,1.3951,1.3957,1.3632,0,0,0,0,0,1.4125,1.4143,1.4069,1.4139,1.4129,1.4052,1.4056,1.3999,1.3971,1.3961,1.3918,1.3897,1.3906,1.3915,1.3921,1.401,1.3998,1.4059,1.4081,1.41,1.4113,1.4159,1.4186,1.3902,1.3902,1.3902,0,0,1.4217,1.4173,1.4191,1.4171,1.4145,1.4168,1.4045,1.4074,1.409,1.3966,1.4012,1.398,1.3949,1.4021,1.405,1.4001,1.4188,1.4114,1.413,1.4133,1.4174,1.4201,1.4225,1.391,1.3909,1.3907,0,0,1.4397,1.4364,1.442,1.4396,1.4358,1.4305,1.4319,1.4262,1.4235,1.4279,1.4186,1.4205,1.4225,1.4207,1.42,1.4372,1.4303,1.4376,1.4495,1.4541,1.4564,1.4583,1.4646,1.467,1.4388,1.4389,1.4389,0,1.4517,1.4545,1.4457,1.4492,1.4487,1.4371,1.4428,1.441,1.4377,1.4377,1.4321,1.4343,1.4314,1.438,1.4422,1.4419,1.4434,1.4383,1.4567,1.4585,1.4602,1.4662,1.4686,1.4398,1.4397,1.4396,1.4395,0,1.4696,1.4717,1.4766,1.4735,1.4734,1.478,1.4701,1.4712,1.4654,1.4609,1.4656,1.4616,1.4612,1.4623,1.4568,1.4682,1.4652,1.4583,1.4486,1.464,1.4695,1.4716,1.4412,1.4408,1.4405,1.4403,0,0,1.498,1.4897,1.4917,1.4901,1.485,1.4866,1.4906,1.4899,1.4911,1.4892,1.4926,1.4943,1.4879,1.4871,1.4813,1.4853,1.4994,1.4779,1.4777,1.4822,1.5119,1.5174,1.5201,1.4946,1.495,1.4953,1.5122,0,1.515,1.5213,1.5134,1.5216,1.5235,1.5125,1.516,1.5134,1.5092,1.5104,1.5058,1.5073,1.4985,1.498,1.5015,1.497,1.5053,1.4956,1.498,1.4981,1.4994,1.5229,1.5287,1.5449,1.5143,1.5146,1.5149,0,1.5358,1.5346,1.5428,1.5371,1.5376,1.541,1.5397,1.5408,1.5377,1.5343,1.5334,1.5263,1.5301,1.5204,1.5257,1.5193,1.5197,1.5176,1.5181,1.5183,1.5077,1.524,1.5498,1.5524,1.5181,1.5178,1.5176,0,1.556,1.5564,1.5614,1.5603,1.5538,1.5564,1.5538,1.5501,1.5502,1.5491,1.5491,1.5486,1.5484,1.5483,1.5413,1.5349,1.5475,1.5372,1.5451,1.5453,1.5485,1.5485,1.5751,1.5484,1.5484,1.5483,1.5483,0,1.576,1.5815,1.5704,1.5735,1.5794,1.5703,1.5765,1.5728,1.5696,1.572,1.5624,1.5649,1.5553,1.5569,1.5514,1.5567,1.5566,1.5542,1.5528,1.5552,1.5556,1.5557,1.5545,1.5489,1.5488,1.5487,1.5486,0,1.5997,1.5924,1.5972,1.5904,1.5888,1.5936,1.5879,1.5906,1.5856,1.5887,1.589,1.5813,1.5826,1.5755,1.5755,1.5718,1.58,1.5764,1.581,1.5801,1.5884,1.5879,1.6163,1.6196,1.5906,1.5909,1.5911,0,1.6131,1.6171,1.6107,1.6114,1.6093,1.6106,1.6106,1.6018,1.6022,1.5987,1.602,1.6024,1.6023,1.6048,1.5995,1.5995,1.5961,1.606,1.596,1.5984,1.5965,1.5965,1.5969,1.6082,1.6086,1.6089,1.6091,0,1.6377,1.6339,1.634,1.633,1.6331,1.6319,1.6301,1.6314,1.6218,1.6228,1.6238,1.6237,1.6236,1.6242,1.6231,1.6206,1.6135,1.6122,1.6141,1.6168,1.6194,1.6184,1.587,1.6117,1.6114,1.6112,1.6111,1.611,1.6568,1.6599,1.6558,1.6564,1.654,1.6525,1.6547,1.6499,1.6505,1.6496,1.6443,1.6464,1.6431,1.6408,1.639,1.6406,1.6359,1.6386,1.6393,1.6402,1.6418,1.6189,1.6404,1.6403,1.6402,1.6401,1.6401,0,1.6812,1.678,1.6785,1.6761,1.6766,1.6693,1.6669,1.6679,1.6697,1.6671,1.6671,1.6683,1.6689,1.6634,1.6632,1.6656,1.6623,1.6659,1.6658,1.6654,1.6459,1.6444,1.6686,1.6686,1.6686,1.6686,1.6686,1.6686,1.694,1.6988,1.6944,1.698,1.6947,1.6965,1.6957,1.6944,1.6922,1.6939,1.6942,1.6905,1.6868,1.6863,1.6865,1.6849,1.6854,1.6902,1.6876,1.6695,1.6668,1.6641,1.6627,1.6903,1.6904,1.7069,1.7071,1.7072]},{"header":{"parameterUnit":"m.s-1","parameterCategory":1,"la1":30.2991,"la2":30.254,"lo1":-89.0895,"lo2":-89.0444,"dy":0.0017,"dx":0.0017,"nx":28,"ny":28,"refTime":"2023-08-26T09:00:00:Z","depth":0,"parameterNumber":3,"parameterNumberName":"V-component_of_WINDS"},"data":[0,0,0,0,0,0,0,0,0,0,0,0,0,0,0,0,0,0,0,0,0,0,0,0,0,0,0,0,0,0,0,0,0,0,0,0,0,0,0,0,0,0,0,0,0,0,0,0,0,0,0,0,0,0,0,0,0,0,-0.7396,-0.7395,0,-0.7307,-0.7306,-0.7305,-0.7267,-0.7267,-0.7267,-0.7267,-0.7174,-0.7171,-0.7169,0,0,0,0,0,0,0,0,0,0,0,0,0,-0.7531,-0.7529,-0.7396,-0.7395,-0.7394,-0.7307,-0.7306,-0.7305,-0.7267,-0.7267,-0.7267,-0.7267,-0.7175,-0.7172,-0.7169,0,0,0,0,0,0,0,0,0,0,0,0,0,-0.746,-0.7528,-0.7396,-0.7365,-0.7361,-0.7308,-0.7306,-0.7305,-0.7267,-0.7267,-0.7267,-0.7267,-0.7176,-0.7172,-0.7168,-0.7139,0,0,-0.7156,-0.7154,0,0,0,0,0,0,0,0,-0.7464,-0.7455,-0.737,-0.7367,-0.7362,-0.7298,-0.7319,-0.7249,-0.7267,-0.7302,-0.7267,-0.7267,-0.7215,-0.7208,-0.7191,-0.7135,-0.7131,-0.7156,-0.7153,-0.7152,-0.7151,0,0,0,0,0,0,0,-0.7469,-0.7459,-0.7361,-0.7369,-0.7364,-0.7354,-0.7344,-0.7306,-0.7258,-0.7299,-0.7296,-0.7286,-0.7213,-0.7194,-0.7188,-0.713,-0.7156,-0.7152,-0.715,-0.7148,-0.7046,-0.7046,0,0,0,0,0,0,-0.748,-0.7463,-0.7364,-0.7358,-0.7415,-0.7351,-0.7341,-0.7319,-0.7259,-0.725,-0.7286,-0.7285,-0.7201,-0.7193,-0.7185,-0.7147,-0.7152,-0.7148,-0.7146,-0.7046,-0.7046,-0.7046,0,0,0,0,0,0,-0.7483,-0.7471,-0.7367,-0.741,-0.7396,-0.7349,-0.7325,-0.7317,-0.7298,-0.7249,-0.724,-0.7276,-0.7201,-0.719,-0.7151,-0.7143,-0.7146,-0.7143,-0.7047,-0.7046,-0.7046,-0.7072,0,0,0,0,0,0,-0.7487,-0.7473,-0.7462,-0.741,-0.7394,-0.7336,-0.7324,-0.7315,-0.7292,-0.7289,-0.7237,-0.7229,-0.72,-0.7157,-0.7147,-0.7138,-0.714,-0.7047,-0.7047,-0.7046,-0.7071,-0.7072,-0.7073,0,0,0,0,0,-0.7492,-0.7472,-0.7461,-0.7449,-0.7379,-0.7335,-0.7326,-0.7294,-0.7291,-0.728,-0.7248,-0.7231,-0.7146,-0.7153,-0.7142,-0.7131,-0.7048,-0.7047,-0.7046,-0.7071,-0.7072,-0.7073,0,0,0,0,0,0,-0.7523,-0.7464,-0.7452,-0.7415,-0.7381,-0.7329,-0.7313,-0.7296,-0.7261,-0.726,-0.7221,-0.721,-0.7174,-0.7149,-0.7158,-0.7101,-0.7095,-0.7092,-0.7118,-0.7119,-0.712,-0.7126,-0.7136,0,0,0,0,0,-0.7525,-0.7495,-0.7446,-0.7418,-0.7401,-0.736,-0.734,-0.7319,-0.7281,-0.7266,-0.7232,-0.7195,-0.716,-0.7138,-0.7104,-0.7068,-0.7056,-0.7055,-0.7056,-0.7057,-0.7054,-0.7034,-0.7033,-0.7043,-0.7043,-0.7043,0,0,-0.753,-0.7495,-0.7478,-0.7423,-0.7394,-0.7363,-0.7348,-0.7316,-0.7293,-0.7261,-0.7222,-0.7196,-0.7153,-0.7115,-0.7097,-0.7093,-0.7049,-0.7056,-0.7057,-0.7054,-0.7033,-0.7032,-0.7031,-0.7042,-0.7042,-0.7043,0,0,-0.7523,-0.7493,-0.7467,-0.7438,-0.7395,-0.7368,-0.7362,-0.7313,-0.7294,-0.7255,-0.723,-0.7202,-0.7143,-0.7113,-0.709,-0.7073,-0.7056,-0.7063,-0.7067,-0.7047,-0.7046,-0.7046,-0.7039,-0.7038,-0.7061,-0.7061,-0.7061,0,-0.7534,-0.7488,-0.7455,-0.7425,-0.7402,-0.7372,-0.7345,-0.7319,-0.7266,-0.725,-0.7246,-0.7172,-0.7141,-0.7096,-0.7092,-0.7075,-0.7066,-0.7069,-0.7049,-0.7048,-0.7047,-0.704,-0.7038,-0.7062,-0.7062,-0.7062,-0.7062,0,-0.7504,-0.7472,-0.7456,-0.7406,-0.7381,-0.7353,-0.7315,-0.7294,-0.7275,-0.7248,-0.7208,-0.717,-0.7127,-0.7115,-0.7096,-0.7068,-0.7067,-0.7057,-0.7051,-0.7047,-0.7041,-0.7038,-0.7064,-0.7063,-0.7063,-0.7063,0,0,-0.7513,-0.7447,-0.7442,-0.7419,-0.7369,-0.7344,-0.7314,-0.7273,-0.7255,-0.7219,-0.7193,-0.7144,-0.7135,-0.7109,-0.7086,-0.7069,-0.7058,-0.7061,-0.7059,-0.7062,-0.7025,-0.7033,-0.7031,-0.7047,-0.7046,-0.7046,-0.7029,0,-0.7499,-0.7445,-0.7415,-0.7373,-0.7344,-0.7316,-0.729,-0.7256,-0.723,-0.7201,-0.7172,-0.7138,-0.7129,-0.7113,-0.7095,-0.7064,-0.705,-0.7064,-0.7021,-0.702,-0.7033,-0.7027,-0.7035,-0.7021,-0.7026,-0.7025,-0.7025,0,-0.7476,-0.7442,-0.7397,-0.7352,-0.7338,-0.7315,-0.7275,-0.7248,-0.7209,-0.7192,-0.7163,-0.7141,-0.7108,-0.7105,-0.7059,-0.7069,-0.705,-0.7032,-0.703,-0.7025,-0.7022,-0.7021,-0.7015,-0.7013,-0.7021,-0.7021,-0.7021,0,-0.7487,-0.743,-0.7396,-0.7378,-0.7324,-0.7308,-0.7285,-0.7246,-0.7224,-0.7189,-0.7174,-0.7135,-0.7114,-0.7085,-0.7053,-0.7053,-0.701,-0.7004,-0.6994,-0.6995,-0.6985,-0.6986,-0.6976,-0.6974,-0.6974,-0.6974,-0.6974,0,-0.7475,-0.7448,-0.7401,-0.738,-0.735,-0.7316,-0.7287,-0.7261,-0.7227,-0.72,-0.7174,-0.7149,-0.7108,-0.7078,-0.7053,-0.7018,-0.7009,-0.6994,-0.6987,-0.6996,-0.6998,-0.6982,-0.6982,-0.6973,-0.6973,-0.6973,-0.6973,0,-0.7482,-0.7449,-0.741,-0.7363,-0.735,-0.733,-0.7288,-0.7267,-0.724,-0.7207,-0.7197,-0.7155,-0.7119,-0.7084,-0.7035,-0.7018,-0.6983,-0.6975,-0.6997,-0.6993,-0.6985,-0.6986,-0.6964,-0.696,-0.6961,-0.6961,-0.6961,0,-0.7476,-0.7455,-0.7406,-0.7387,-0.7364,-0.7333,-0.731,-0.7276,-0.7253,-0.7208,-0.7192,-0.7154,-0.7121,-0.7064,-0.7029,-0.6992,-0.6982,-0.6977,-0.6976,-0.6986,-0.6982,-0.6983,-0.6981,-0.6978,-0.6978,-0.6978,-0.6978,0,-0.7469,-0.7454,-0.7423,-0.7386,-0.736,-0.7329,-0.7297,-0.7282,-0.7242,-0.7218,-0.7181,-0.7156,-0.7106,-0.7068,-0.7027,-0.7002,-0.6983,-0.6979,-0.6974,-0.6983,-0.6996,-0.6989,-0.6999,-0.6979,-0.6979,-0.6979,-0.6979,-0.6979,-0.7469,-0.745,-0.7413,-0.7378,-0.7351,-0.7322,-0.73,-0.7271,-0.724,-0.7197,-0.7179,-0.7141,-0.7103,-0.7046,-0.7021,-0.6991,-0.6987,-0.698,-0.6979,-0.6978,-0.698,-0.7002,-0.6983,-0.6983,-0.6983,-0.6983,-0.6983,0,-0.7461,-0.7436,-0.7405,-0.7362,-0.7335,-0.7321,-0.7285,-0.7263,-0.7231,-0.7197,-0.7167,-0.7124,-0.7088,-0.705,-0.7011,-0.6994,-0.6985,-0.6985,-0.6986,-0.6981,-0.6986,-0.6993,-0.6994,-0.6994,-0.6994,-0.6994,-0.6994,-0.6994,-0.7454,-0.742,-0.7401,-0.7354,-0.7328,-0.7292,-0.7273,-0.7246,-0.7219,-0.7173,-0.7143,-0.7119,-0.7084,-0.7042,-0.7008,-0.6998,-0.6985,-0.6988,-0.6975,-0.6981,-0.698,-0.698,-0.6987,-0.6985,-0.6985,-0.6972,-0.6972,-0.6972]}]]